Time,TemperatureF,DewpointF,PressureIn,WindDirection,WindDirectionDegrees,WindSpeedMPH,WindSpeedGustMPH,Humidity,HourlyPrecipIn,Conditions,Clouds,dailyrainin,SoftwareType,DateUTC
2013-03-27 00:00:00,34.4,24.6,30.08,WSW,254,3.5,3.5,67,0.00,RA,,0.00,WeatherDisplay:10.37,2013-03-27 04:00:00,
2013-03-27 00:01:00,34.4,24.6,30.08,WSW,255,1.1,1.1,67,0.00,RA,,0.00,WeatherDisplay:10.37,2013-03-27 04:01:00,
2013-03-27 00:02:00,34.4,24.6,30.08,WSW,255,0.0,0.0,67,0.00,RA,,0.00,WeatherDisplay:10.37,2013-03-27 04:02:00,
2013-03-27 00:05:00,34.4,24.6,30.08,West,259,1.1,0.0,67,0.00,RA,,0.00,WeatherDisplay:10.37,2013-03-27 04:05:00,
2013-03-27 00:10:00,34.4,24.9,30.08,WSW,252,0.0,0.0,68,0.00,CLR,,0.00,WeatherDisplay:10.37,2013-03-27 04:10:00,
2013-03-27 00:15:00,34.2,25.1,30.08,WSW,240,0.0,0.0,69,0.00,CLR,,0.00,WeatherDisplay:10.37,2013-03-27 04:15:00,
2013-03-27 00:20:00,34.0,24.5,30.08,WSW,256,0.0,0.0,68,0.00,CLR,,0.00,WeatherDisplay:10.37,2013-03-27 04:20:00,
2013-03-27 00:25:00,33.9,24.4,30.08,SW,232,2.3,2.3,68,0.00,CLR,,0.00,WeatherDisplay:10.37,2013-03-27 04:25:00,
2013-03-27 00:30:00,33.8,24.4,30.08,West,267,0.0,0.0,68,0.00,CLR,,0.00,WeatherDisplay:10.37,2013-03-27 04:30:00,
2013-03-27 00:35:00,33.7,24.6,30.08,West,271,5.8,5.8,69,0.00,CLR,,0.00,WeatherDisplay:10.37,2013-03-27 04:35:00,
2013-03-27 00:40:00,33.6,24.2,30.08,WNW,285,3.5,3.5,68,0.00,CLR,,0.00,WeatherDisplay:10.37,2013-03-27 04:40:00,
2013-03-27 00:45:00,33.5,24.4,30.09,West,277,2.3,2.3,69,0.00,CLR,,0.00,WeatherDisplay:10.37,2013-03-27 04:45:00,
2013-03-27 00:50:00,33.3,24.2,30.09,NNW,327,3.5,3.5,69,0.00,CLR,,0.00,WeatherDisplay:10.37,2013-03-27 04:50:00,
2013-03-27 00:55:00,33.1,24.0,30.09,NW,318,4.6,4.6,69,0.00,CLR,,0.00,WeatherDisplay:10.37,2013-03-27 04:55:00,
2013-03-27 01:00:00,33.0,24.3,30.09,NW,322,0.0,0.0,70,0.00,CLR,,0.00,WeatherDisplay:10.37,2013-03-27 05:00:00,
2013-03-27 01:05:00,32.8,24.1,30.08,WNW,290,3.5,3.5,70,0.00,CLR,,0.00,WeatherDisplay:10.37,2013-03-27 05:05:00,
2013-03-27 01:10:00,32.8,24.1,30.08,WNW,300,5.8,5.8,70,0.00,CLR,,0.00,WeatherDisplay:10.37,2013-03-27 05:10:00,
2013-03-27 01:15:00,32.7,24.3,30.08,West,269,5.0,5.0,71,0.00,CLR,,0.00,WeatherDisplay:10.37,2013-03-27 05:15:00,
2013-03-27 01:20:00,32.5,24.1,30.08,WNW,302,1.1,1.1,71,0.00,CLR,,0.00,WeatherDisplay:10.37,2013-03-27 05:20:00,
2013-03-27 01:25:00,32.4,24.0,30.08,WNW,286,9.2,9.2,71,0.00,CLR,,0.00,WeatherDisplay:10.37,2013-03-27 05:25:00,
2013-03-27 01:30:00,32.3,24.3,30.08,West,259,3.5,0.0,72,0.00,CLR,,0.00,WeatherDisplay:10.37,2013-03-27 05:30:00,
2013-03-27 01:35:00,32.1,24.1,30.08,WNW,298,1.1,1.1,72,0.00,CLR,,0.00,WeatherDisplay:10.37,2013-03-27 05:35:00,
2013-03-27 01:40:00,32.0,24.0,30.08,West,281,3.5,3.5,72,0.00,CLR,,0.00,WeatherDisplay:10.37,2013-03-27 05:40:00,
2013-03-27 01:45:00,31.9,24.2,30.08,West,275,3.5,3.5,73,0.00,CLR,,0.00,WeatherDisplay:10.37,2013-03-27 05:45:00,
2013-03-27 01:50:00,31.8,24.1,30.08,West,265,4.6,4.6,73,0.00,CLR,,0.00,WeatherDisplay:10.37,2013-03-27 05:50:00,
2013-03-27 01:55:00,31.7,24.0,30.08,WSW,242,5.8,5.8,73,0.00,CLR,,0.00,WeatherDisplay:10.37,2013-03-27 05:55:00,
2013-03-27 02:00:00,31.7,24.0,30.08,SW,236,5.8,5.8,73,0.00,CLR,,0.00,WeatherDisplay:10.37,2013-03-27 06:00:00,
2013-03-27 02:05:00,31.6,23.9,30.08,West,270,9.2,9.2,73,0.00,CLR,,0.00,WeatherDisplay:10.37,2013-03-27 06:05:00,
2013-03-27 02:10:00,31.6,23.9,30.08,West,261,5.8,5.8,73,0.00,CLR,,0.00,WeatherDisplay:10.37,2013-03-27 06:10:00,
2013-03-27 02:15:00,31.6,23.9,30.08,WSW,258,3.5,0.0,73,0.00,CLR,,0.00,WeatherDisplay:10.37,2013-03-27 06:15:00,
2013-03-27 02:20:00,31.4,24.1,30.08,WSW,256,1.1,0.0,74,0.00,CLR,,0.00,WeatherDisplay:10.37,2013-03-27 06:20:00,
2013-03-27 02:25:00,31.3,24.0,30.08,WNW,283,3.5,3.5,74,0.00,CLR,,0.00,WeatherDisplay:10.37,2013-03-27 06:25:00,
2013-03-27 02:30:00,31.2,24.2,30.08,WSW,255,0.0,0.0,75,0.00,CLR,,0.00,WeatherDisplay:10.37,2013-03-27 06:30:00,
2013-03-27 02:35:00,31.1,24.1,30.07,West,281,2.3,2.3,75,0.00,CLR,,0.00,WeatherDisplay:10.37,2013-03-27 06:35:00,
2013-03-27 02:40:00,31.1,24.1,30.07,West,273,3.5,3.5,75,0.00,CLR,,0.00,WeatherDisplay:10.37,2013-03-27 06:40:00,
2013-03-27 02:45:00,31.1,24.1,30.07,WSW,248,3.0,3.0,75,0.00,CLR,,0.00,WeatherDisplay:10.37,2013-03-27 06:45:00,
2013-03-27 02:50:00,31.1,24.1,30.07,WSW,250,1.1,1.1,75,0.00,CLR,,0.00,WeatherDisplay:10.37,2013-03-27 06:50:00,
2013-03-27 02:55:00,30.9,23.9,30.07,WSW,245,4.6,4.6,75,0.00,CLR,,0.00,WeatherDisplay:10.37,2013-03-27 06:55:00,
2013-03-27 03:00:00,30.8,24.1,30.07,West,262,0.0,0.0,76,0.00,CLR,,0.00,WeatherDisplay:10.37,2013-03-27 07:00:00,
2013-03-27 03:05:00,30.8,24.1,30.07,WSW,256,3.5,0.0,76,0.00,CLR,,0.00,WeatherDisplay:10.37,2013-03-27 07:05:00,
2013-03-27 03:11:00,30.8,24.1,30.07,WSW,252,3.5,3.5,76,0.00,CLR,,0.00,WeatherDisplay:10.37,2013-03-27 07:11:00,
2013-03-27 03:16:00,30.7,24.0,30.07,WSW,256,3.5,3.5,76,0.00,CLR,,0.00,WeatherDisplay:10.37,2013-03-27 07:16:00,
2013-03-27 03:21:00,30.7,24.0,30.07,West,272,1.1,1.1,76,0.00,CLR,,0.00,WeatherDisplay:10.37,2013-03-27 07:21:00,
2013-03-27 03:26:00,30.5,23.8,30.07,WSW,257,3.5,3.5,76,0.00,CLR,,0.00,WeatherDisplay:10.37,2013-03-27 07:26:00,
2013-03-27 03:31:00,30.5,23.8,30.07,WSW,241,3.5,3.5,76,0.00,CLR,,0.00,WeatherDisplay:10.37,2013-03-27 07:31:00,
2013-03-27 03:37:00,30.5,23.8,30.07,West,277,3.5,3.5,76,0.00,CLR,,0.00,WeatherDisplay:10.37,2013-03-27 07:37:00,
2013-03-27 03:42:00,30.5,23.8,30.07,West,260,6.9,6.9,76,0.00,CLR,,0.00,WeatherDisplay:10.37,2013-03-27 07:42:00,
2013-03-27 03:47:00,30.5,23.8,30.07,SW,236,0.0,0.0,76,0.00,CLR,,0.00,WeatherDisplay:10.37,2013-03-27 07:47:00,
2013-03-27 03:52:00,30.4,24.1,30.07,SW,236,0.0,0.0,77,0.00,CLR,,0.00,WeatherDisplay:10.37,2013-03-27 07:52:00,
2013-03-27 03:57:00,30.3,24.0,30.07,WSW,244,2.3,2.3,77,0.00,CLR,,0.00,WeatherDisplay:10.37,2013-03-27 07:57:00,
2013-03-27 04:03:00,30.3,24.0,30.07,WSW,256,0.0,0.0,77,0.00,CLR,,0.00,WeatherDisplay:10.37,2013-03-27 08:03:00,
2013-03-27 04:08:00,30.3,24.0,30.07,WNW,282,3.5,3.5,77,0.00,CLR,,0.00,WeatherDisplay:10.37,2013-03-27 08:08:00,
2013-03-27 04:13:00,30.4,24.4,30.07,West,276,3.5,0.0,78,0.00,CLR,,0.00,WeatherDisplay:10.37,2013-03-27 08:13:00,
2013-03-27 04:18:00,30.6,24.2,30.07,WNW,285,1.1,0.0,77,0.00,CLR,,0.00,WeatherDisplay:10.37,2013-03-27 08:18:00,
2013-03-27 04:23:00,30.7,24.3,30.07,West,277,3.5,3.5,77,0.00,CLR,,0.00,WeatherDisplay:10.37,2013-03-27 08:23:00,
2013-03-27 04:28:00,30.7,24.3,30.07,West,277,0.0,0.0,77,0.00,CLR,,0.00,WeatherDisplay:10.37,2013-03-27 08:28:00,
2013-03-27 04:33:00,30.7,24.7,30.07,West,265,4.6,4.6,78,0.00,CLR,,0.00,WeatherDisplay:10.37,2013-03-27 08:33:00,
2013-03-27 04:38:00,30.8,24.7,30.07,West,268,5.0,5.0,78,0.00,CLR,,0.00,WeatherDisplay:10.37,2013-03-27 08:38:00,
2013-03-27 04:43:00,31.0,24.9,30.07,West,263,4.0,4.0,78,0.00,CLR,,0.00,WeatherDisplay:10.37,2013-03-27 08:43:00,
2013-03-27 04:48:00,31.1,25.0,30.07,WSW,252,3.5,3.5,78,0.00,CLR,,0.00,WeatherDisplay:10.37,2013-03-27 08:48:00,
2013-03-27 04:53:00,31.2,25.1,30.07,West,265,5.8,5.8,78,0.00,CLR,,0.00,WeatherDisplay:10.37,2013-03-27 08:53:00,
2013-03-27 04:58:00,31.3,25.2,30.07,NW,313,2.3,2.3,78,0.00,CLR,,0.00,WeatherDisplay:10.37,2013-03-27 08:58:00,
2013-03-27 05:03:00,31.3,25.5,30.07,NW,319,5.8,5.8,79,0.00,CLR,,0.00,WeatherDisplay:10.37,2013-03-27 09:03:00,
2013-03-27 05:08:00,31.3,25.5,30.07,NW,309,0.0,0.0,79,0.00,CLR,,0.00,WeatherDisplay:10.37,2013-03-27 09:08:00,
2013-03-27 05:13:00,31.3,25.5,30.07,NNW,333,5.8,5.8,79,0.00,CLR,,0.00,WeatherDisplay:10.37,2013-03-27 09:13:00,
2013-03-27 05:18:00,31.4,25.6,30.07,WNW,282,10.4,10.4,79,0.00,CLR,,0.00,WeatherDisplay:10.37,2013-03-27 09:18:00,
2013-03-27 05:23:00,31.4,25.6,30.07,West,277,5.8,5.8,79,0.00,CLR,,0.00,WeatherDisplay:10.37,2013-03-27 09:23:00,
2013-03-27 05:28:00,31.4,25.6,30.07,WNW,287,6.9,6.9,79,0.00,CLR,,0.00,WeatherDisplay:10.37,2013-03-27 09:28:00,
2013-03-27 05:33:00,31.5,25.7,30.08,WNW,296,4.6,4.6,79,0.00,CLR,,0.00,WeatherDisplay:10.37,2013-03-27 09:33:00,
2013-03-27 05:38:00,31.5,26.0,30.08,WSW,255,6.9,6.9,80,0.00,CLR,,0.00,WeatherDisplay:10.37,2013-03-27 09:38:00,
2013-03-27 05:43:00,31.4,25.9,30.08,WNW,287,10.4,10.4,80,0.00,CLR,,0.00,WeatherDisplay:10.37,2013-03-27 09:43:00,
2013-03-27 05:48:00,31.4,25.9,30.08,WNW,283,10.4,10.4,80,0.00,CLR,,0.00,WeatherDisplay:10.37,2013-03-27 09:48:00,
2013-03-27 05:53:00,31.4,25.9,30.08,West,279,11.5,11.5,80,0.00,CLR,,0.00,WeatherDisplay:10.37,2013-03-27 09:53:00,
2013-03-27 05:58:00,31.3,25.8,30.08,West,267,4.6,4.6,80,0.00,CLR,,0.00,WeatherDisplay:10.37,2013-03-27 09:58:00,
2013-03-27 06:03:00,31.2,25.7,30.08,NNW,345,6.9,6.9,80,0.00,CLR,,0.00,WeatherDisplay:10.37,2013-03-27 10:03:00,
2013-03-27 06:08:00,31.1,25.7,30.08,NW,322,4.6,4.6,80,0.00,CLR,,0.00,WeatherDisplay:10.37,2013-03-27 10:08:00,
2013-03-27 06:13:00,31.0,25.9,30.08,WSW,256,10.4,10.4,81,0.00,CLR,,0.00,WeatherDisplay:10.37,2013-03-27 10:13:00,
2013-03-27 06:18:00,30.9,25.5,30.08,West,264,4.0,4.0,80,0.00,CLR,,0.00,WeatherDisplay:10.37,2013-03-27 10:18:00,
2013-03-27 06:23:00,30.9,25.8,30.09,WSW,252,0.0,0.5,81,0.00,CLR,,0.00,WeatherDisplay:10.37,2013-03-27 10:23:00,
2013-03-27 06:28:00,30.8,25.7,30.08,WNW,303,9.2,9.2,81,0.00,CLR,,0.00,WeatherDisplay:10.37,2013-03-27 10:28:00,
2013-03-27 06:33:00,30.8,25.7,30.09,WSW,250,3.5,3.5,81,0.00,CLR,,0.00,WeatherDisplay:10.37,2013-03-27 10:33:00,
2013-03-27 06:38:00,30.8,25.7,30.08,West,277,6.9,6.9,81,0.00,CLR,,0.00,WeatherDisplay:10.37,2013-03-27 10:38:00,
2013-03-27 06:43:00,30.8,25.7,30.08,West,259,3.5,3.5,81,0.00,CLR,,0.00,WeatherDisplay:10.37,2013-03-27 10:43:00,
2013-03-27 06:48:00,30.6,25.5,30.09,West,278,4.6,4.6,81,0.00,CLR,,0.00,WeatherDisplay:10.37,2013-03-27 10:48:00,
2013-03-27 06:53:00,30.6,25.5,30.09,West,277,6.9,6.9,81,0.00,CLR,,0.00,WeatherDisplay:10.37,2013-03-27 10:53:00,
2013-03-27 06:58:00,30.5,25.4,30.09,West,265,3.0,3.0,81,0.00,CLR,,0.00,WeatherDisplay:10.37,2013-03-27 10:58:00,
2013-03-27 07:03:00,30.4,25.3,30.09,SW,215,3.5,3.5,81,0.00,CLR,,0.00,WeatherDisplay:10.37,2013-03-27 11:03:00,
2013-03-27 07:08:00,30.3,25.5,30.09,West,268,6.0,6.0,82,0.00,CLR,,0.00,WeatherDisplay:10.37,2013-03-27 11:08:00,
2013-03-27 07:13:00,30.3,25.5,30.09,West,266,6.9,6.9,82,0.00,CLR,,0.00,WeatherDisplay:10.37,2013-03-27 11:13:00,
2013-03-27 07:18:00,30.3,25.5,30.09,WSW,254,1.1,1.1,82,0.00,CLR,,0.00,WeatherDisplay:10.37,2013-03-27 11:18:00,
2013-03-27 07:23:00,30.2,25.1,30.09,West,265,10.4,10.4,81,0.00,CLR,,0.00,WeatherDisplay:10.37,2013-03-27 11:23:00,
2013-03-27 07:28:00,30.1,25.3,30.09,NW,311,6.9,6.9,82,0.00,CLR,,0.00,WeatherDisplay:10.37,2013-03-27 11:28:00,
2013-03-27 07:33:00,30.2,25.1,30.09,West,267,3.5,3.5,81,0.00,CLR,,0.00,WeatherDisplay:10.37,2013-03-27 11:33:00,
2013-03-27 07:38:00,30.1,25.3,30.10,WSW,242,6.9,6.9,82,0.00,CLR,,0.00,WeatherDisplay:10.37,2013-03-27 11:38:00,
2013-03-27 07:43:00,30.1,25.3,30.09,WSW,238,6.0,6.0,82,0.00,CLR,,0.00,WeatherDisplay:10.37,2013-03-27 11:43:00,
2013-03-27 07:48:00,30.2,25.4,30.10,West,275,10.4,10.4,82,0.00,CLR,,0.00,WeatherDisplay:10.37,2013-03-27 11:48:00,
2013-03-27 07:53:00,30.2,25.4,30.10,WNW,302,5.0,5.0,82,0.00,CLR,,0.00,WeatherDisplay:10.37,2013-03-27 11:53:00,
2013-03-27 07:58:00,30.3,25.5,30.10,WSW,250,6.9,6.9,82,0.00,CLR,,0.00,WeatherDisplay:10.37,2013-03-27 11:58:00,
2013-03-27 08:03:00,30.4,25.6,30.10,WSW,248,1.1,1.1,82,0.00,CLR,,0.00,WeatherDisplay:10.37,2013-03-27 12:03:00,
2013-03-27 08:08:00,30.5,25.7,30.10,SW,236,4.6,4.6,82,0.00,CLR,,0.00,WeatherDisplay:10.37,2013-03-27 12:08:00,
2013-03-27 08:13:00,30.6,25.5,30.11,WSW,250,8.1,8.1,81,0.00,CLR,,0.00,WeatherDisplay:10.37,2013-03-27 12:13:00,
2013-03-27 08:18:00,30.7,25.6,30.10,WSW,245,6.9,6.9,81,0.00,CLR,,0.00,WeatherDisplay:10.37,2013-03-27 12:18:00,
2013-03-27 08:23:00,30.8,25.7,30.10,SW,221,6.9,6.9,81,0.00,CLR,,0.00,WeatherDisplay:10.37,2013-03-27 12:23:00,
2013-03-27 08:28:00,30.8,25.7,30.11,West,272,3.5,3.5,81,0.00,CLR,,0.00,WeatherDisplay:10.37,2013-03-27 12:28:00,
2013-03-27 08:33:00,30.9,25.8,30.11,West,276,3.5,3.5,81,0.00,CLR,,0.00,WeatherDisplay:10.37,2013-03-27 12:33:00,
2013-03-27 08:38:00,31.0,25.9,30.11,West,276,10.0,10.0,81,0.00,CLR,,0.00,WeatherDisplay:10.37,2013-03-27 12:38:00,
2013-03-27 08:43:00,31.0,25.9,30.11,West,269,4.6,4.6,81,0.00,CLR,,0.00,WeatherDisplay:10.37,2013-03-27 12:43:00,
2013-03-27 08:48:00,31.2,26.0,30.11,West,277,4.0,4.0,81,0.00,CLR,,0.00,WeatherDisplay:10.37,2013-03-27 12:48:00,
2013-03-27 08:53:00,31.4,26.2,30.11,WSW,242,2.3,2.3,81,0.00,CLR,,0.00,WeatherDisplay:10.37,2013-03-27 12:53:00,
2013-03-27 08:58:00,31.6,26.1,30.11,SW,232,5.8,5.8,80,0.00,CLR,,0.00,WeatherDisplay:10.37,2013-03-27 12:58:00,
2013-03-27 09:03:00,31.7,26.2,30.11,West,263,4.6,4.6,80,0.00,CLR,,0.00,WeatherDisplay:10.37,2013-03-27 13:03:00,
2013-03-27 09:08:00,32.0,26.5,30.11,West,280,6.0,6.0,80,0.00,CLR,,0.00,WeatherDisplay:10.37,2013-03-27 13:08:00,
2013-03-27 09:13:00,32.2,26.4,30.11,WNW,292,3.5,3.5,79,0.00,CLR,,0.00,WeatherDisplay:10.37,2013-03-27 13:13:00,
2013-03-27 09:18:00,32.5,26.7,30.11,West,268,3.5,3.5,79,0.00,CLR,,0.00,WeatherDisplay:10.37,2013-03-27 13:18:00,
2013-03-27 09:23:00,32.8,26.7,30.11,West,263,10.4,10.4,78,0.00,CLR,,0.00,WeatherDisplay:10.37,2013-03-27 13:23:00,
2013-03-27 09:28:00,33.1,27.0,30.11,West,280,4.6,0.0,78,0.00,CLR,,0.00,WeatherDisplay:10.37,2013-03-27 13:28:00,
2013-03-27 09:33:00,33.6,27.2,30.11,NW,314,3.5,3.5,77,0.00,CLR,,0.00,WeatherDisplay:10.37,2013-03-27 13:33:00,
2013-03-27 09:38:00,33.9,27.4,30.11,WNW,284,7.0,7.0,77,0.00,CLR,,0.00,WeatherDisplay:10.37,2013-03-27 13:38:00,
2013-03-27 09:43:00,34.3,27.5,30.11,WSW,253,6.0,6.0,76,0.00,CLR,,0.00,WeatherDisplay:10.37,2013-03-27 13:43:00,
2013-03-27 09:48:00,34.4,27.3,30.11,WSW,255,11.5,11.5,75,0.00,CLR,,0.00,WeatherDisplay:10.37,2013-03-27 13:48:00,
2013-03-27 09:53:00,34.3,27.2,30.11,West,271,8.1,8.1,75,0.00,CLR,,0.00,WeatherDisplay:10.37,2013-03-27 13:53:00,
2013-03-27 09:58:00,34.4,27.3,30.11,SW,214,13.8,13.8,75,0.00,CLR,,0.00,WeatherDisplay:10.37,2013-03-27 13:58:00,
2013-03-27 10:03:00,34.4,27.3,30.11,WSW,239,10.4,10.4,75,0.00,CLR,,0.00,WeatherDisplay:10.37,2013-03-27 14:03:00,
2013-03-27 10:10:00,34.8,27.7,30.11,NW,321,6.9,6.9,75,0.00,CLR,,0.00,WeatherDisplay:10.37,2013-03-27 14:10:00,
2013-03-27 10:15:00,35.3,27.8,30.11,NW,313,10.4,10.4,74,0.00,CLR,,0.00,WeatherDisplay:10.37,2013-03-27 14:15:00,
2013-03-27 10:20:00,35.7,27.9,30.11,West,273,5.8,6.3,73,0.00,CLR,,0.00,WeatherDisplay:10.37,2013-03-27 14:20:00,
2013-03-27 10:25:00,35.7,27.9,30.11,WNW,295,6.9,6.9,73,0.00,CLR,,0.00,WeatherDisplay:10.37,2013-03-27 14:25:00,
2013-03-27 10:30:00,35.9,27.7,30.11,WSW,244,12.7,12.7,72,0.00,CLR,,0.00,WeatherDisplay:10.37,2013-03-27 14:30:00,
2013-03-27 10:35:00,36.1,27.6,30.11,WSW,253,15.0,15.0,71,0.00,CLR,,0.00,WeatherDisplay:10.37,2013-03-27 14:35:00,
2013-03-27 10:40:00,36.5,28.0,30.12,WSW,258,8.1,8.1,71,0.00,CLR,,0.00,WeatherDisplay:10.37,2013-03-27 14:40:00,
2013-03-27 10:45:00,36.7,27.8,30.12,SW,218,12.7,12.7,70,0.00,CLR,,0.00,WeatherDisplay:10.37,2013-03-27 14:45:00,
2013-03-27 10:50:00,36.9,28.0,30.11,WSW,238,6.9,6.9,70,0.00,CLR,,0.00,WeatherDisplay:10.37,2013-03-27 14:50:00,
2013-03-27 10:55:00,37.3,28.1,30.12,WSW,249,9.2,9.2,69,0.00,CLR,,0.00,WeatherDisplay:10.37,2013-03-27 14:55:00,
2013-03-27 11:00:00,37.3,28.1,30.12,SW,233,10.4,10.4,69,0.00,CLR,,0.00,WeatherDisplay:10.37,2013-03-27 15:00:00,
2013-03-27 11:05:00,37.7,28.8,30.12,WSW,248,6.9,6.9,70,0.00,CLR,,0.00,WeatherDisplay:10.37,2013-03-27 15:05:00,
2013-03-27 11:10:00,37.7,28.4,30.12,West,259,10.4,10.4,69,0.00,CLR,,0.00,WeatherDisplay:10.37,2013-03-27 15:10:00,
2013-03-27 11:15:00,38.1,28.8,30.11,WSW,257,11.5,11.5,69,0.00,CLR,,0.00,WeatherDisplay:10.37,2013-03-27 15:15:00,
2013-03-27 11:20:00,38.1,28.1,30.12,WSW,245,12.7,12.7,67,0.00,CLR,,0.00,WeatherDisplay:10.37,2013-03-27 15:20:00,
2013-03-27 11:25:00,38.3,28.3,30.12,WNW,286,5.8,5.8,67,0.00,CLR,,0.00,WeatherDisplay:10.37,2013-03-27 15:25:00,
2013-03-27 11:30:00,38.8,29.1,30.12,NW,307,0.0,0.5,68,0.00,CLR,,0.00,WeatherDisplay:10.37,2013-03-27 15:30:00,
2013-03-27 11:35:00,39.3,28.9,30.11,SW,214,6.9,6.9,66,0.00,CLR,,0.00,WeatherDisplay:10.37,2013-03-27 15:35:00,
2013-03-27 11:40:00,39.3,28.5,30.12,WSW,246,16.1,16.1,65,0.00,CLR,,0.00,WeatherDisplay:10.37,2013-03-27 15:40:00,
2013-03-27 11:45:00,39.3,28.5,30.11,NW,316,5.8,5.8,65,0.00,CLR,,0.00,WeatherDisplay:10.37,2013-03-27 15:45:00,
2013-03-27 11:50:00,40.0,28.8,30.12,WSW,248,11.5,11.5,64,0.00,CLR,,0.00,WeatherDisplay:10.37,2013-03-27 15:50:00,
2013-03-27 11:55:00,40.0,28.0,30.12,South,184,4.6,4.6,62,0.00,CLR,,0.00,WeatherDisplay:10.37,2013-03-27 15:55:00,
2013-03-27 12:00:00,40.4,28.0,30.11,West,277,8.0,8.0,61,0.00,CLR,,0.00,WeatherDisplay:10.37,2013-03-27 16:00:00,
2013-03-27 12:05:00,40.5,28.5,30.12,West,266,10.4,10.4,62,0.00,CLR,,0.00,WeatherDisplay:10.37,2013-03-27 16:05:00,
2013-03-27 12:10:00,40.7,27.5,30.12,NNW,336,8.1,8.1,59,0.00,CLR,,0.00,WeatherDisplay:10.37,2013-03-27 16:10:00,
2013-03-27 12:15:00,40.8,27.6,30.11,SW,216,17.3,17.3,59,0.00,CLR,,0.00,WeatherDisplay:10.37,2013-03-27 16:15:00,
2013-03-27 12:20:00,41.3,28.0,30.11,WSW,242,12.7,12.7,59,0.00,CLR,,0.00,WeatherDisplay:10.37,2013-03-27 16:20:00,
2013-03-27 12:25:00,41.5,27.4,30.11,NW,305,10.4,10.4,57,0.00,CLR,,0.00,WeatherDisplay:10.37,2013-03-27 16:25:00,
2013-03-27 12:30:00,41.4,27.3,30.11,WSW,245,18.4,18.4,57,0.00,CLR,,0.00,WeatherDisplay:10.37,2013-03-27 16:30:00,
2013-03-27 12:35:00,41.4,27.3,30.11,North,360,11.5,11.5,57,0.00,CLR,,0.00,WeatherDisplay:10.37,2013-03-27 16:35:00,
2013-03-27 12:40:00,41.7,27.6,30.11,NNW,338,11.5,11.5,57,0.00,CLR,,0.00,WeatherDisplay:10.37,2013-03-27 16:40:00,
2013-03-27 12:45:00,42.0,27.4,30.11,West,276,12.7,12.7,56,0.00,CLR,,0.00,WeatherDisplay:10.37,2013-03-27 16:45:00,
2013-03-27 12:50:00,42.1,27.9,30.11,NW,322,10.4,10.4,57,0.00,CLR,,0.00,WeatherDisplay:10.37,2013-03-27 16:50:00,
2013-03-27 12:55:00,42.2,27.2,30.11,SW,236,12.7,12.7,55,0.00,CLR,,0.00,WeatherDisplay:10.37,2013-03-27 16:55:00,
2013-03-27 13:00:00,42.3,27.7,30.11,WSW,254,13.8,13.8,56,0.00,CLR,,0.00,WeatherDisplay:10.37,2013-03-27 17:00:00,
2013-03-27 13:05:00,42.5,27.9,30.11,West,271,3.5,3.5,56,0.00,CLR,,0.00,WeatherDisplay:10.37,2013-03-27 17:05:00,
2013-03-27 13:10:00,43.0,27.5,30.11,WNW,297,5.8,5.8,54,0.00,CLR,,0.00,WeatherDisplay:10.37,2013-03-27 17:10:00,
2013-03-27 13:15:00,43.5,27.5,30.11,NNW,337,10.4,10.4,53,0.00,CLR,,0.00,WeatherDisplay:10.37,2013-03-27 17:15:00,
2013-03-27 13:20:00,43.1,26.7,30.11,WSW,244,8.1,8.1,52,0.00,CLR,,0.00,WeatherDisplay:10.37,2013-03-27 17:20:00,
2013-03-27 13:25:00,42.6,26.6,30.11,West,259,11.5,11.5,53,0.00,CLR,,0.00,WeatherDisplay:10.37,2013-03-27 17:25:00,
2013-03-27 13:30:00,43.0,27.5,30.11,WSW,257,10.4,10.4,54,0.00,CLR,,0.00,WeatherDisplay:10.37,2013-03-27 17:30:00,
2013-03-27 13:35:00,43.2,26.7,30.10,West,263,12.7,12.7,52,0.00,CLR,,0.00,WeatherDisplay:10.37,2013-03-27 17:35:00,
2013-03-27 13:40:00,43.7,28.1,30.10,NNW,333,9.2,9.2,54,0.00,CLR,,0.00,WeatherDisplay:10.37,2013-03-27 17:40:00,
2013-03-27 13:45:00,45.0,28.4,30.10,West,271,5.8,5.8,52,0.00,CLR,,0.00,WeatherDisplay:10.37,2013-03-27 17:45:00,
2013-03-27 13:50:00,44.9,28.3,30.10,NNW,344,4.6,4.6,52,0.00,CLR,,0.00,WeatherDisplay:10.37,2013-03-27 17:50:00,
2013-03-27 13:55:00,45.0,27.9,30.10,NW,325,12.7,12.7,51,0.00,CLR,,0.00,WeatherDisplay:10.37,2013-03-27 17:55:00,
2013-03-27 14:00:00,44.6,27.6,30.10,NNW,333,9.2,9.2,51,0.00,CLR,,0.00,WeatherDisplay:10.37,2013-03-27 18:00:00,
2013-03-27 14:05:00,44.5,28.4,30.10,SSE,164,6.9,6.9,53,0.00,CLR,,0.00,WeatherDisplay:10.37,2013-03-27 18:05:00,
2013-03-27 14:10:00,45.2,28.1,30.10,NNE,28,10.0,10.0,51,0.00,CLR,,0.00,WeatherDisplay:10.37,2013-03-27 18:10:00,
2013-03-27 14:15:00,45.2,27.6,30.10,WSW,257,12.7,12.7,50,0.00,CLR,,0.00,WeatherDisplay:10.37,2013-03-27 18:15:00,
2013-03-27 14:20:00,44.5,28.0,30.10,SW,231,5.8,5.9,52,0.00,CLR,,0.00,WeatherDisplay:10.37,2013-03-27 18:20:00,
2013-03-27 14:25:00,44.6,28.0,30.10,WNW,295,11.5,11.5,52,0.00,CLR,,0.00,WeatherDisplay:10.37,2013-03-27 18:25:00,
2013-03-27 14:30:00,45.0,28.4,30.10,West,267,9.2,9.2,52,0.00,CLR,,0.00,WeatherDisplay:10.37,2013-03-27 18:30:00,
2013-03-27 14:36:00,45.2,28.1,30.10,NW,307,3.5,3.5,51,0.00,CLR,,0.00,WeatherDisplay:10.37,2013-03-27 18:36:00,
2013-03-27 14:41:00,44.8,28.2,30.10,West,265,9.0,9.0,52,0.00,CLR,,0.00,WeatherDisplay:10.37,2013-03-27 18:41:00,
2013-03-27 14:46:00,44.5,27.5,30.10,SW,233,11.0,11.0,51,0.00,CLR,,0.00,WeatherDisplay:10.37,2013-03-27 18:46:00,
2013-03-27 14:51:00,44.6,27.1,30.10,WSW,252,16.1,16.1,50,0.00,CLR,,0.00,WeatherDisplay:10.37,2013-03-27 18:51:00,
2013-03-27 14:57:00,44.9,27.8,30.09,SW,235,6.9,6.9,51,0.00,CLR,,0.00,WeatherDisplay:10.37,2013-03-27 18:57:00,
2013-03-27 15:02:00,45.1,27.6,30.10,WNW,283,19.6,19.6,50,0.00,CLR,,0.00,WeatherDisplay:10.37,2013-03-27 19:02:00,
2013-03-27 15:07:00,45.1,27.6,30.09,West,265,6.9,6.9,50,0.00,CLR,,0.00,WeatherDisplay:10.37,2013-03-27 19:07:00,
2013-03-27 15:12:00,45.1,27.6,30.10,West,273,11.5,11.5,50,0.00,CLR,,0.00,WeatherDisplay:10.37,2013-03-27 19:12:00,
2013-03-27 15:17:00,44.8,27.3,30.10,WSW,253,6.9,6.9,50,0.00,CLR,,0.00,WeatherDisplay:10.37,2013-03-27 19:17:00,
2013-03-27 15:22:00,44.7,27.7,30.09,SW,223,11.5,11.5,51,0.00,CLR,,0.00,WeatherDisplay:10.37,2013-03-27 19:22:00,
2013-03-27 15:27:00,45.0,27.5,30.09,WNW,291,13.8,13.8,50,0.00,CLR,,0.00,WeatherDisplay:10.37,2013-03-27 19:27:00,
2013-03-27 15:32:00,45.0,27.9,30.09,NW,318,11.5,11.5,51,0.00,CLR,,0.00,WeatherDisplay:10.37,2013-03-27 19:32:00,
2013-03-27 15:37:00,45.0,26.5,30.09,WSW,244,18.4,18.4,48,0.00,CLR,,0.00,WeatherDisplay:10.37,2013-03-27 19:37:00,
2013-03-27 15:42:00,44.9,26.9,30.09,West,260,11.5,11.5,49,0.00,CLR,,0.00,WeatherDisplay:10.37,2013-03-27 19:42:00,
2013-03-27 15:47:00,44.9,26.9,30.09,WNW,303,11.5,11.5,49,0.00,CLR,,0.00,WeatherDisplay:10.37,2013-03-27 19:47:00,
2013-03-27 15:52:00,44.6,27.1,30.09,West,273,12.7,12.7,50,0.00,CLR,,0.00,WeatherDisplay:10.37,2013-03-27 19:52:00,
2013-03-27 15:57:00,45.0,27.9,30.09,WNW,287,3.5,3.7,51,0.00,CLR,,0.00,WeatherDisplay:10.37,2013-03-27 19:57:00,
2013-03-27 16:02:00,45.3,27.2,30.09,West,279,15.0,15.0,49,0.00,CLR,,0.00,WeatherDisplay:10.37,2013-03-27 20:02:00,
2013-03-27 16:07:00,45.2,27.6,30.09,WSW,237,8.1,8.1,50,0.00,CLR,,0.00,WeatherDisplay:10.37,2013-03-27 20:07:00,
2013-03-27 16:12:00,45.0,27.5,30.09,NW,314,10.4,10.4,50,0.00,CLR,,0.00,WeatherDisplay:10.37,2013-03-27 20:12:00,
2013-03-27 16:17:00,45.0,27.5,30.09,WSW,242,6.9,6.9,50,0.00,CLR,,0.00,WeatherDisplay:10.37,2013-03-27 20:17:00,
2013-03-27 16:22:00,45.0,27.0,30.09,WNW,292,5.0,5.0,49,0.00,CLR,,0.00,WeatherDisplay:10.37,2013-03-27 20:22:00,
2013-03-27 16:27:00,44.8,27.3,30.09,West,261,17.3,17.3,50,0.00,CLR,,0.00,WeatherDisplay:10.37,2013-03-27 20:27:00,
2013-03-27 16:32:00,44.6,27.6,30.08,SW,227,6.0,6.0,51,0.00,CLR,,0.00,WeatherDisplay:10.37,2013-03-27 20:32:00,
2013-03-27 16:37:00,45.0,27.9,30.09,WSW,248,5.0,5.0,51,0.00,CLR,,0.00,WeatherDisplay:10.37,2013-03-27 20:37:00,
2013-03-27 16:42:00,45.0,27.5,30.08,WSW,244,0.0,0.0,50,0.00,CLR,,0.00,WeatherDisplay:10.37,2013-03-27 20:42:00,
2013-03-27 16:47:00,45.0,27.5,30.09,West,275,3.5,3.5,50,0.00,CLR,,0.00,WeatherDisplay:10.37,2013-03-27 20:47:00,
2013-03-27 16:52:00,44.8,27.3,30.09,WSW,245,11.5,11.5,50,0.00,CLR,,0.00,WeatherDisplay:10.37,2013-03-27 20:52:00,
2013-03-27 16:57:00,45.0,27.5,30.09,NW,307,4.6,4.6,50,0.00,CLR,,0.00,WeatherDisplay:10.37,2013-03-27 20:57:00,
2013-03-27 17:02:00,44.7,27.2,30.09,WSW,238,12.7,12.7,50,0.00,CLR,,0.00,WeatherDisplay:10.37,2013-03-27 21:02:00,
2013-03-27 17:07:00,44.6,27.1,30.09,WNW,290,10.0,10.0,50,0.00,CLR,,0.00,WeatherDisplay:10.37,2013-03-27 21:07:00,
2013-03-27 17:12:00,45.0,27.0,30.09,WSW,242,11.5,11.5,49,0.00,CLR,,0.00,WeatherDisplay:10.37,2013-03-27 21:12:00,
2013-03-27 17:17:00,45.2,27.6,30.09,SSW,210,4.6,4.6,50,0.00,CLR,,0.00,WeatherDisplay:10.37,2013-03-27 21:17:00,
2013-03-27 17:22:00,45.2,28.1,30.09,NW,306,11.5,11.5,51,0.00,CLR,,0.00,WeatherDisplay:10.37,2013-03-27 21:22:00,
2013-03-27 17:27:00,44.5,27.5,30.10,WNW,302,16.0,16.0,51,0.00,CLR,,0.00,WeatherDisplay:10.37,2013-03-27 21:27:00,
2013-03-27 17:32:00,43.7,27.2,30.10,NE,34,13.8,13.8,52,0.00,CLR,,0.00,WeatherDisplay:10.37,2013-03-27 21:32:00,
2013-03-27 17:37:00,43.5,27.0,30.10,NNW,338,11.5,11.5,52,0.00,CLR,,0.00,WeatherDisplay:10.37,2013-03-27 21:37:00,
2013-03-27 17:42:00,43.4,26.9,30.10,NNE,16,11.5,11.5,52,0.00,CLR,,0.00,WeatherDisplay:10.37,2013-03-27 21:42:00,
2013-03-27 17:47:00,43.9,27.9,30.11,WNW,300,15.0,15.0,53,0.00,CLR,,0.00,WeatherDisplay:10.37,2013-03-27 21:47:00,
2013-03-27 17:52:00,44.1,27.6,30.10,NNW,344,11.5,11.5,52,0.00,CLR,,0.00,WeatherDisplay:10.37,2013-03-27 21:52:00,
2013-03-27 17:57:00,43.7,27.7,30.10,North,360,6.9,6.9,53,0.00,CLR,,0.00,WeatherDisplay:10.37,2013-03-27 21:57:00,
2013-03-27 18:02:00,43.4,27.8,30.11,West,277,8.1,8.1,54,0.00,CLR,,0.00,WeatherDisplay:10.37,2013-03-27 22:02:00,
2013-03-27 18:07:00,43.3,27.3,30.11,NNW,333,18.4,18.4,53,0.00,CLR,,0.00,WeatherDisplay:10.37,2013-03-27 22:07:00,
2013-03-27 18:13:00,43.0,27.5,30.11,WNW,289,13.8,13.8,54,0.00,CLR,,0.00,WeatherDisplay:10.37,2013-03-27 22:13:00,
2013-03-27 18:18:00,42.9,27.4,30.11,North,360,9.2,9.2,54,0.00,CLR,,0.00,WeatherDisplay:10.37,2013-03-27 22:18:00,
2013-03-27 18:23:00,42.8,27.3,30.11,NNW,331,9.2,9.2,54,0.00,CLR,,0.00,WeatherDisplay:10.37,2013-03-27 22:23:00,
2013-03-27 18:28:00,42.5,27.5,30.11,NW,325,12.7,12.7,55,0.00,CLR,,0.00,WeatherDisplay:10.37,2013-03-27 22:28:00,
2013-03-27 18:33:00,42.2,27.6,30.11,NW,323,4.6,4.6,56,0.00,CLR,,0.00,WeatherDisplay:10.37,2013-03-27 22:33:00,
2013-03-27 18:38:00,41.8,27.2,30.11,NNW,328,9.2,9.2,56,0.00,CLR,,0.00,WeatherDisplay:10.37,2013-03-27 22:38:00,
2013-03-27 18:43:00,41.6,27.5,30.12,NW,321,3.5,3.5,57,0.00,CLR,,0.00,WeatherDisplay:10.37,2013-03-27 22:43:00,
2013-03-27 18:48:00,41.4,27.7,30.11,NW,319,4.6,4.6,58,0.00,CLR,,0.00,WeatherDisplay:10.37,2013-03-27 22:48:00,
2013-03-27 18:53:00,41.1,27.4,30.12,NW,311,1.1,1.1,58,0.00,CLR,,0.00,WeatherDisplay:10.37,2013-03-27 22:53:00,
2013-03-27 18:58:00,41.0,27.8,30.12,NNW,341,4.6,4.6,59,0.00,CLR,,0.00,WeatherDisplay:10.37,2013-03-27 22:58:00,
2013-03-27 19:03:00,40.9,27.7,30.12,NNW,339,0.0,0.0,59,0.00,CLR,,0.00,WeatherDisplay:10.37,2013-03-27 23:03:00,
2013-03-27 19:08:00,40.8,27.6,30.12,NW,319,4.6,4.6,59,0.00,CLR,,0.00,WeatherDisplay:10.37,2013-03-27 23:08:00,
2013-03-27 19:13:00,40.7,27.9,30.12,NW,308,4.6,4.6,60,0.00,CLR,,0.00,WeatherDisplay:10.37,2013-03-27 23:13:00,
2013-03-27 19:18:00,40.5,27.7,30.13,NW,319,5.8,5.8,60,0.00,CLR,,0.00,WeatherDisplay:10.37,2013-03-27 23:18:00,
2013-03-27 19:23:00,40.4,27.6,30.13,NNW,327,3.5,3.5,60,0.00,CLR,,0.00,WeatherDisplay:10.37,2013-03-27 23:23:00,
2013-03-27 19:28:00,40.2,27.4,30.13,North,9,5.8,5.8,60,0.00,CLR,,0.00,WeatherDisplay:10.37,2013-03-27 23:28:00,
2013-03-27 19:33:00,40.0,27.2,30.13,WNW,293,4.6,4.6,60,0.00,CLR,,0.00,WeatherDisplay:10.37,2013-03-27 23:33:00,
2013-03-27 19:38:00,39.8,27.0,30.13,NW,322,3.5,3.5,60,0.00,CLR,,0.00,WeatherDisplay:10.37,2013-03-27 23:38:00,
2013-03-27 19:43:00,39.7,27.3,30.13,NW,325,4.6,4.6,61,0.00,CLR,,0.00,WeatherDisplay:10.37,2013-03-27 23:43:00,
2013-03-27 19:48:00,39.5,27.2,30.13,NW,320,3.5,3.5,61,0.00,CLR,,0.00,WeatherDisplay:10.37,2013-03-27 23:48:00,
2013-03-27 19:54:00,39.2,27.3,30.13,NNW,336,4.6,4.6,62,0.00,CLR,,0.00,WeatherDisplay:10.37,2013-03-27 23:54:00,
2013-03-27 19:59:00,39.0,27.1,30.13,NW,326,2.3,2.3,62,0.00,CLR,,0.00,WeatherDisplay:10.37,2013-03-27 23:59:00,
2013-03-27 20:04:00,39.1,27.2,30.14,NNW,347,0.0,0.0,62,0.00,CLR,,0.00,WeatherDisplay:10.37,2013-03-28 00:04:00,
2013-03-27 20:09:00,38.9,27.0,30.14,North,350,0.0,0.0,62,0.00,CLR,,0.00,WeatherDisplay:10.37,2013-03-28 00:09:00,
2013-03-27 20:14:00,38.7,27.2,30.14,NNW,330,6.0,6.0,63,0.00,CLR,,0.00,WeatherDisplay:10.37,2013-03-28 00:14:00,
2013-03-27 20:19:00,38.6,27.1,30.14,NW,312,3.5,3.5,63,0.00,CLR,,0.00,WeatherDisplay:10.37,2013-03-28 00:19:00,
2013-03-27 20:24:00,38.5,27.0,30.14,NNW,337,0.0,0.0,63,0.00,CLR,,0.00,WeatherDisplay:10.37,2013-03-28 00:24:00,
2013-03-27 20:29:00,38.4,26.9,30.14,NNW,331,6.9,6.9,63,0.00,CLR,,0.00,WeatherDisplay:10.37,2013-03-28 00:29:00,
2013-03-27 20:34:00,38.3,26.8,30.14,NNW,331,0.0,0.0,63,0.00,CLR,,0.00,WeatherDisplay:10.37,2013-03-28 00:34:00,
2013-03-27 20:39:00,38.2,27.1,30.14,NW,310,4.6,4.6,64,0.00,CLR,,0.00,WeatherDisplay:10.37,2013-03-28 00:39:00,
2013-03-27 20:44:00,38.1,27.0,30.15,North,349,3.5,3.5,64,0.00,CLR,,0.00,WeatherDisplay:10.37,2013-03-28 00:44:00,
2013-03-27 20:49:00,38.0,26.9,30.15,NNW,342,0.0,0.0,64,0.00,CLR,,0.00,WeatherDisplay:10.37,2013-03-28 00:49:00,
2013-03-27 20:54:00,37.8,26.7,30.15,NW,318,3.5,3.5,64,0.00,CLR,,0.00,WeatherDisplay:10.37,2013-03-28 00:54:00,
2013-03-27 20:59:00,37.6,26.9,30.15,North,360,4.0,4.0,65,0.00,CLR,,0.00,WeatherDisplay:10.37,2013-03-28 00:59:00,
2013-03-27 21:04:00,37.5,26.8,30.15,North,355,1.0,0.0,65,0.00,CLR,,0.00,WeatherDisplay:10.37,2013-03-28 01:04:00,
2013-03-27 21:09:00,37.3,26.6,30.15,North,355,0.0,0.0,65,0.00,CLR,,0.00,WeatherDisplay:10.37,2013-03-28 01:09:00,
2013-03-27 21:14:00,37.1,26.8,30.15,North,355,2.3,0.0,66,0.00,CLR,,0.00,WeatherDisplay:10.37,2013-03-28 01:14:00,
2013-03-27 21:19:00,37.0,26.7,30.15,WNW,296,10.4,10.4,66,0.00,CLR,,0.00,WeatherDisplay:10.37,2013-03-28 01:19:00,
2013-03-27 21:24:00,37.0,26.7,30.15,WNW,300,2.0,2.0,66,0.00,CLR,,0.00,WeatherDisplay:10.37,2013-03-28 01:24:00,
2013-03-27 21:29:00,36.9,26.6,30.15,West,259,0.0,0.0,66,0.00,CLR,,0.00,WeatherDisplay:10.37,2013-03-28 01:29:00,
2013-03-27 21:34:00,36.7,26.4,30.16,West,259,1.1,0.0,66,0.00,CLR,,0.00,WeatherDisplay:10.37,2013-03-28 01:34:00,
2013-03-27 21:39:00,36.4,26.5,30.16,West,259,0.0,0.0,67,0.00,CLR,,0.00,WeatherDisplay:10.37,2013-03-28 01:39:00,
2013-03-27 21:44:00,36.2,26.3,30.16,West,259,0.0,0.0,67,0.00,CLR,,0.00,WeatherDisplay:10.37,2013-03-28 01:44:00,
2013-03-27 21:49:00,35.9,26.0,30.16,West,259,0.0,0.0,67,0.00,CLR,,0.00,WeatherDisplay:10.37,2013-03-28 01:49:00,
2013-03-27 21:54:00,35.7,26.2,30.16,West,260,3.5,0.0,68,0.00,CLR,,0.00,WeatherDisplay:10.37,2013-03-28 01:54:00,
2013-03-27 21:59:00,35.5,26.0,30.16,West,260,1.1,0.0,68,0.00,CLR,,0.00,WeatherDisplay:10.37,2013-03-28 01:59:00,
2013-03-27 22:04:00,35.4,26.2,30.16,West,261,1.0,1.0,69,0.00,CLR,,0.00,WeatherDisplay:10.37,2013-03-28 02:04:00,
2013-03-27 22:09:00,35.3,26.1,30.16,West,263,0.0,0.1,69,0.00,CLR,,0.00,WeatherDisplay:10.37,2013-03-28 02:09:00,
2013-03-27 22:14:00,35.2,26.0,30.16,West,265,2.3,2.3,69,0.00,CLR,,0.00,WeatherDisplay:10.37,2013-03-28 02:14:00,
2013-03-27 22:19:00,35.1,25.9,30.16,West,265,1.1,0.0,69,0.00,CLR,,0.00,WeatherDisplay:10.37,2013-03-28 02:19:00,
2013-03-27 22:24:00,34.9,25.8,30.16,West,265,0.0,0.3,69,0.00,CLR,,0.00,WeatherDisplay:10.37,2013-03-28 02:24:00,
2013-03-27 22:29:00,34.8,26.0,30.16,West,265,0.0,0.0,70,0.00,CLR,,0.00,WeatherDisplay:10.37,2013-03-28 02:29:00,
2013-03-27 22:34:00,34.7,25.9,30.16,West,268,1.1,1.1,70,0.00,CLR,,0.00,WeatherDisplay:10.37,2013-03-28 02:34:00,
2013-03-27 22:39:00,34.6,25.8,30.16,West,267,0.0,0.0,70,0.00,CLR,,0.00,WeatherDisplay:10.37,2013-03-28 02:39:00,
2013-03-27 22:44:00,34.4,25.6,30.16,West,267,0.0,0.0,70,0.00,CLR,,0.00,WeatherDisplay:10.37,2013-03-28 02:44:00,
2013-03-27 22:49:00,34.4,26.0,30.16,West,267,0.0,0.0,71,0.00,CLR,,0.00,WeatherDisplay:10.37,2013-03-28 02:49:00,
2013-03-27 22:54:00,34.0,25.9,30.16,West,280,2.3,0.0,72,0.00,CLR,,0.00,WeatherDisplay:10.37,2013-03-28 02:54:00,
2013-03-27 22:59:00,34.0,25.9,30.16,West,280,3.5,3.5,72,0.00,CLR,,0.00,WeatherDisplay:10.37,2013-03-28 02:59:00,
2013-03-27 23:04:00,34.2,26.1,30.16,West,269,3.5,3.5,72,0.00,CLR,,0.00,WeatherDisplay:10.37,2013-03-28 03:04:00,
2013-03-27 23:09:00,34.3,26.2,30.16,West,265,2.3,2.3,72,0.00,CLR,,0.00,WeatherDisplay:10.37,2013-03-28 03:09:00,
2013-03-27 23:14:00,34.4,26.0,30.16,WNW,287,0.0,0.0,71,0.00,CLR,,0.00,WeatherDisplay:10.37,2013-03-28 03:14:00,
2013-03-27 23:19:00,34.3,25.9,30.17,WNW,298,3.5,0.0,71,0.00,CLR,,0.00,WeatherDisplay:10.37,2013-03-28 03:19:00,
2013-03-27 23:24:00,34.2,26.1,30.16,WNW,294,2.3,0.0,72,0.00,CLR,,0.00,WeatherDisplay:10.37,2013-03-28 03:24:00,
2013-03-27 23:29:00,34.1,26.0,30.17,WNW,291,3.5,3.5,72,0.00,CLR,,0.00,WeatherDisplay:10.37,2013-03-28 03:29:00,
2013-03-27 23:34:00,34.2,26.1,30.17,WNW,294,3.5,3.5,72,0.00,CLR,,0.00,WeatherDisplay:10.37,2013-03-28 03:34:00,
2013-03-27 23:39:00,34.2,26.1,30.17,WNW,295,1.1,0.0,72,0.00,CLR,,0.00,WeatherDisplay:10.37,2013-03-28 03:39:00,
2013-03-27 23:44:00,34.1,26.0,30.17,WNW,294,0.0,0.0,72,0.00,CLR,,0.00,WeatherDisplay:10.37,2013-03-28 03:44:00,
2013-03-27 23:49:00,33.9,25.8,30.17,WNW,294,0.0,0.0,72,0.00,CLR,,0.00,WeatherDisplay:10.37,2013-03-28 03:49:00,
2013-03-27 23:54:00,33.7,26.0,30.17,WNW,294,0.0,0.0,73,0.00,CLR,,0.00,WeatherDisplay:10.37,2013-03-28 03:54:00,
2013-03-27 23:59:00,33.8,26.1,30.17,WNW,290,0.0,0.0,73,0.00,CLR,,0.00,WeatherDisplay:10.37,2013-03-28 03:59:00,